Voltar ao catálogo

TUBSAT A

AtivoCiênciaSSO
NORAD 21577·PAYLOAD·🇩🇪 Germany

Lançado Jul 17, 1991 de Guiana Space Centre

Loading…

Próximas Passagens (próximas 24 horas)

TLE

AtualizadoSource: Space-Track

Época: Sep 14, 2026, 14:16 UTC

1 21577U 91050D   26257.59504061  .00000074  00000-0  36627-4 0  9998
2 21577  98.3749 325.5309 0006061   2.9056 357.2167 14.40572666846253

Acompanhe TUBSAT A em tempo real com AllMySat

Download on the App Store